OAL463 CYYZ-KSFO

Flight info

Callsign OAL463
Flight time N/A
Altitude 32002
Route GOPUP4 SLLAP DCT BAE J16 MCW J148 CYS DCT EKR DCT LOOLO DCT DTA DCT RUMPS DCT OAL DCT INYOE DYAMD5
Aircraft B77L/H-SDE1E2E3FGHIJ2J3J4J5M1RWXY/LB1D1

Departure

Time N/A
Airport Toronto Pearson International Airport (CYYZ)

Arrival

Time 2026-05-04 15:20
Airport San Francisco International Airport (KSFO)
Time Latitude Longitude Altitude Speed Heading
2026-05-04 14:18 38.98583 -113.87495 33969 ft 444 kts 252°
2026-05-04 14:19 38.94967 -114.02647 33970 ft 443 kts 252°
2026-05-04 14:19 38.93150 -114.10218 33968 ft 444 kts 252°
2026-05-04 14:20 38.91327 -114.17799 33986 ft 444 kts 252°
2026-05-04 14:20 38.89497 -114.25381 33976 ft 445 kts 252°
2026-05-04 14:21 38.86737 -114.36767 33985 ft 447 kts 252°
2026-05-04 14:21 38.85186 -114.43160 33979 ft 448 kts 252°
2026-05-04 14:22 38.83338 -114.50737 33983 ft 448 kts 252°
2026-05-04 14:22 38.81471 -114.58366 33981 ft 448 kts 252°
2026-05-04 14:23 38.78662 -114.69800 33982 ft 448 kts 252°
2026-05-04 14:24 38.76787 -114.77404 33982 ft 448 kts 252°
2026-05-04 14:24 38.74908 -114.85007 33979 ft 448 kts 252°
2026-05-04 14:25 38.73020 -114.92606 33984 ft 447 kts 251°
2026-05-04 14:25 38.70187 -115.03978 33990 ft 447 kts 251°
2026-05-04 14:26 38.68288 -115.11576 33988 ft 448 kts 251°
2026-05-04 14:26 38.66382 -115.19167 33991 ft 448 kts 251°
2026-05-04 14:27 38.64470 -115.26757 33990 ft 448 kts 251°
2026-05-04 14:27 38.62557 -115.34338 33994 ft 448 kts 251°
2026-05-04 14:28 38.60636 -115.41928 33994 ft 449 kts 251°
2026-05-04 14:28 38.58709 -115.49518 33991 ft 450 kts 251°
2026-05-04 14:29 38.54828 -115.64726 33983 ft 450 kts 251°
2026-05-04 14:30 38.52881 -115.72318 33979 ft 449 kts 251°
2026-05-04 14:31 38.49953 -115.83697 33971 ft 449 kts 251°
2026-05-04 14:32 38.46037 -115.98827 33965 ft 449 kts 251°
2026-05-04 14:32 38.44075 -116.06386 33968 ft 449 kts 251°
2026-05-04 14:33 38.42103 -116.13952 33969 ft 450 kts 250°
2026-05-04 14:33 38.40135 -116.21473 33972 ft 450 kts 250°
2026-05-04 14:34 38.38149 -116.29047 33955 ft 451 kts 250°
2026-05-04 14:34 38.36159 -116.36616 33963 ft 450 kts 250°
2026-05-04 14:35 38.34163 -116.44182 33960 ft 451 kts 250°
2026-05-04 14:35 38.32162 -116.51744 33959 ft 451 kts 250°
2026-05-04 14:36 38.30154 -116.59306 33964 ft 451 kts 250°
2026-05-04 14:36 38.28140 -116.66874 33958 ft 451 kts 250°
2026-05-04 14:37 38.26121 -116.74438 33960 ft 451 kts 250°
2026-05-04 14:37 38.24099 -116.81992 33957 ft 451 kts 250°
2026-05-04 14:38 38.22071 -116.89544 33945 ft 451 kts 250°
2026-05-04 14:38 38.20044 -116.97078 33952 ft 450 kts 250°
2026-05-04 14:39 38.18007 -117.04604 33954 ft 450 kts 250°
2026-05-04 14:39 38.15968 -117.12139 33953 ft 451 kts 250°
2026-05-04 14:40 38.12901 -117.23427 33960 ft 451 kts 250°
2026-05-04 14:40 38.10909 -117.30976 33952 ft 452 kts 252°
2026-05-04 14:41 38.09175 -117.38631 33958 ft 451 kts 252°
2026-05-04 14:42 38.05695 -117.53927 33954 ft 450 kts 252°
2026-05-04 14:42 38.03925 -117.61518 33949 ft 448 kts 252°
2026-05-04 14:43 38.02153 -117.69098 33936 ft 447 kts 252°
2026-05-04 14:43 38.00439 -117.76674 33949 ft 447 kts 255°
2026-05-04 14:44 37.99484 -117.84414 33948 ft 448 kts 260°
2026-05-04 14:44 37.98702 -117.92251 33941 ft 448 kts 260°
2026-05-04 14:45 37.97891 -118.00081 33934 ft 448 kts 260°
2026-05-04 14:45 37.97067 -118.07904 33938 ft 448 kts 260°
2026-05-04 14:46 37.96237 -118.15718 33948 ft 448 kts 260°
2026-05-04 14:46 37.95400 -118.23548 33933 ft 448 kts 259°
2026-05-04 14:47 37.94557 -118.31378 33932 ft 449 kts 259°
2026-05-04 14:47 37.93710 -118.39202 33937 ft 449 kts 259°
2026-05-04 14:48 37.92855 -118.47038 33959 ft 449 kts 259°
2026-05-04 14:48 37.92067 -118.54235 33963 ft 450 kts 259°
2026-05-04 14:49 37.91202 -118.62081 33967 ft 450 kts 260°
2026-05-04 14:49 37.90332 -118.69933 33976 ft 450 kts 259°
2026-05-04 14:50 37.89456 -118.77790 33976 ft 451 kts 259°
2026-05-04 14:50 37.88564 -118.85651 33983 ft 451 kts 259°
2026-05-04 14:51 37.87670 -118.93467 33990 ft 452 kts 259°
2026-05-04 14:51 37.86765 -119.01351 33989 ft 453 kts 259°
2026-05-04 14:52 37.85854 -119.09252 33989 ft 454 kts 260°
2026-05-04 14:52 37.84935 -119.17166 33991 ft 455 kts 259°
2026-05-04 14:53 37.84009 -119.25101 33995 ft 456 kts 260°
2026-05-04 14:53 37.83074 -119.33055 34000 ft 458 kts 260°
2026-05-04 14:54 37.82133 -119.41031 34007 ft 459 kts 260°
2026-05-04 14:54 37.81181 -119.49026 34008 ft 460 kts 260°
2026-05-04 14:55 37.80224 -119.57035 34007 ft 462 kts 260°
2026-05-04 14:55 37.79258 -119.65074 34009 ft 463 kts 260°
2026-05-04 14:56 37.78283 -119.73128 34019 ft 464 kts 260°
2026-05-04 14:56 37.77304 -119.81170 34013 ft 459 kts 260°
2026-05-04 14:57 37.76341 -119.89046 34027 ft 454 kts 259°
2026-05-04 14:57 37.75374 -119.96900 34042 ft 452 kts 259°
2026-05-04 14:58 37.74406 -120.04732 34015 ft 450 kts 259°
2026-05-04 14:58 37.73922 -120.08623 33660 ft 447 kts 259°
2026-05-04 14:58 37.73596 -120.11233 33320 ft 445 kts 259°
2026-05-04 14:59 37.72959 -120.16322 32587 ft 442 kts 259°
2026-05-04 14:59 37.72482 -120.20126 32067 ft 440 kts 259°
2026-05-04 14:59 37.71545 -120.27587 30572 ft 424 kts 259°
2026-05-04 15:00 37.71079 -120.31263 29661 ft 422 kts 259°
2026-05-04 15:00 37.70643 -120.34714 28829 ft 419 kts 259°
2026-05-04 15:00 37.70208 -120.38143 27967 ft 415 kts 259°
2026-05-04 15:01 37.69337 -120.45252 26599 ft 409 kts 261°
2026-05-04 15:01 37.68930 -120.48796 25783 ft 405 kts 261°
2026-05-04 15:01 37.68533 -120.52273 25303 ft 397 kts 261°
2026-05-04 15:01 37.68132 -120.55739 24801 ft 403 kts 261°
2026-05-04 15:02 37.67721 -120.59267 24289 ft 408 kts 261°
2026-05-04 15:02 37.67307 -120.62799 23758 ft 404 kts 261°
2026-05-04 15:02 37.66894 -120.66310 23249 ft 404 kts 261°
2026-05-04 15:02 37.66481 -120.69817 22738 ft 403 kts 261°
2026-05-04 15:03 37.66067 -120.73316 22219 ft 403 kts 261°
2026-05-04 15:03 37.65651 -120.76812 21701 ft 403 kts 261°
2026-05-04 15:03 37.65232 -120.80308 21155 ft 403 kts 261°
2026-05-04 15:03 37.64811 -120.83797 20627 ft 402 kts 261°
2026-05-04 15:04 37.64391 -120.87276 20150 ft 400 kts 261°
2026-05-04 15:04 37.63973 -120.90735 19735 ft 397 kts 261°
2026-05-04 15:04 37.63560 -120.94147 19440 ft 390 kts 261°
2026-05-04 15:04 37.63289 -120.96370 19224 ft 386 kts 261°
2026-05-04 15:05 37.62715 -121.00791 18829 ft 377 kts 260°
2026-05-04 15:05 37.62426 -121.02931 18645 ft 372 kts 260°
2026-05-04 15:05 37.61994 -121.06120 18319 ft 367 kts 260°
2026-05-04 15:05 37.61423 -121.10350 17731 ft 364 kts 260°
2026-05-04 15:06 37.61143 -121.12432 17425 ft 363 kts 260°
2026-05-04 15:06 37.60721 -121.15569 16970 ft 362 kts 260°
2026-05-04 15:06 37.60302 -121.18693 16539 ft 360 kts 260°
2026-05-04 15:07 37.59469 -121.24867 15674 ft 355 kts 260°
2026-05-04 15:07 37.59065 -121.27935 15236 ft 354 kts 261°
2026-05-04 15:07 37.58706 -121.30994 14806 ft 352 kts 262°
2026-05-04 15:07 37.58363 -121.34036 14387 ft 350 kts 262°
2026-05-04 15:08 37.58022 -121.37064 13960 ft 348 kts 262°
2026-05-04 15:08 37.57682 -121.40069 13532 ft 346 kts 262°
2026-05-04 15:08 37.57340 -121.43061 13104 ft 344 kts 261°
2026-05-04 15:08 37.56997 -121.46037 12684 ft 342 kts 261°
2026-05-04 15:09 37.56654 -121.48997 12266 ft 340 kts 261°
2026-05-04 15:09 37.56312 -121.51935 11933 ft 335 kts 261°
2026-05-04 15:09 37.55981 -121.54785 11855 ft 322 kts 261°
2026-05-04 15:10 37.55350 -121.60180 11579 ft 302 kts 261°
2026-05-04 15:10 37.55037 -121.62763 11354 ft 294 kts 259°
2026-05-04 15:10 37.53925 -121.67656 10648 ft 291 kts 251°
2026-05-04 15:11 37.53303 -121.70075 10282 ft 290 kts 252°
2026-05-04 15:11 37.52702 -121.72489 9941 ft 287 kts 252°
2026-05-04 15:11 37.52119 -121.74889 9590 ft 286 kts 252°
2026-05-04 15:11 37.51545 -121.77276 9251 ft 284 kts 252°
2026-05-04 15:12 37.50976 -121.79650 8917 ft 282 kts 252°
2026-05-04 15:12 37.50411 -121.82008 8556 ft 280 kts 252°
2026-05-04 15:12 37.49848 -121.84348 8236 ft 278 kts 252°
2026-05-04 15:12 37.49294 -121.86669 7921 ft 275 kts 253°
2026-05-04 15:13 37.49039 -121.89026 7396 ft 274 kts 271°
2026-05-04 15:13 37.49190 -121.91423 7190 ft 278 kts 275°
2026-05-04 15:13 37.49383 -121.93872 7045 ft 281 kts 274°
2026-05-04 15:13 37.49556 -121.96286 7001 ft 273 kts 274°
2026-05-04 15:14 37.49713 -121.98655 6826 ft 270 kts 274°
2026-05-04 15:14 37.49857 -122.01007 6438 ft 269 kts 273°
2026-05-04 15:14 37.49994 -122.03351 6053 ft 267 kts 273°
2026-05-04 15:14 37.50127 -122.05657 5726 ft 263 kts 273°
2026-05-04 15:15 37.50259 -122.07941 5394 ft 259 kts 273°
2026-05-04 15:15 37.50492 -122.10134 5100 ft 248 kts 288°
2026-05-04 15:15 37.51328 -122.11995 4752 ft 240 kts 304°
2026-05-04 15:16 37.52914 -122.15556 4132 ft 228 kts 296°
2026-05-04 15:16 37.53631 -122.17292 3883 ft 219 kts 296°
2026-05-04 15:16 37.54967 -122.20479 3135 ft 193 kts 296°
2026-05-04 15:17 37.55581 -122.21942 2712 ft 186 kts 296°
2026-05-04 15:17 37.56731 -122.24685 1984 ft 168 kts 297°
2026-05-04 15:17 37.57285 -122.26005 1750 ft 171 kts 298°
2026-05-04 15:18 37.57835 -122.27318 1510 ft 167 kts 298°
2026-05-04 15:18 37.58369 -122.28589 1289 ft 162 kts 298°
2026-05-04 15:18 37.58894 -122.29843 1082 ft 162 kts 297°
2026-05-04 15:19 37.59959 -122.32382 661 ft 166 kts 297°
2026-05-04 15:19 37.60504 -122.33671 437 ft 166 kts 298°
2026-05-04 15:19 37.61561 -122.36193 43 ft 155 kts 297°
2026-05-04 15:20 37.62006 -122.37287 27 ft 118 kts 298°
2026-05-04 15:20 37.62287 -122.37938 26 ft 51 kts 299°
2026-05-04 15:20 37.62415 -122.38254 26 ft 39 kts 296°
2026-05-04 15:20 37.62505 -122.38525 26 ft 28 kts 277°
2026-05-04 15:21 37.62501 -122.38738 26 ft 23 kts 266°
2026-05-04 15:21 37.62450 -122.38879 26 ft 17 kts 222°
2026-05-04 15:21 37.62257 -122.38906 26 ft 17 kts 123°
2026-05-04 15:22 37.62193 -122.38888 26 ft 8 kts 207°
2026-05-04 15:22 37.62162 -122.38908 25 ft 4 kts 207°
2026-05-04 15:22 37.62133 -122.38927 26 ft 0 kts 207°